This demonstration page uses our WeatherBlox Daily Observations layout. Learn more.

Left ArrowRight Arrow

41.55636, -103.73856

Hourly Observations for November 29, 2019

Temp ( °F °C ) Dew Point ( °F °C ) Humidity (%) Winds ( mph kmh ) Pressure ( in mb ) Visibility ( mi km ) Precip ( " mm )
12:58 am 00:58 Cloudy 30 -1.3 28 -2 95 95 SSE 16 26 30.03 1017 9 14.48406 N/A
1:58 am 01:58 Cloudy with Light Freezing Drizzle 30 -1.3 29 -1.9 96 96 SSE 15 24 30.01 1016 7 11.26538 N/A
2:58 am 02:58 Cloudy with Light Snow 29 -1.4 29 -1.8 97 97 SSE 13 20 30.01 1016 7 11.26538 N/A
3:58 am 03:58 Cloudy with Mist and Fog 30 -1.3 29 -1.7 97 97 SSE 8 13 30 1016 6 9.65604 N/A
4:58 am 04:58 Cloudy 30 -1.2 29 -1.6 97 97 SSE 12 19 30 1016 8 12.87472 N/A
5:58 am 05:58 Cloudy with Mist and Fog 30 -1.1 29 -1.4 98 98 S 8 13 29.99 1016 6 9.65604 N/A
6:58 am 06:58 Cloudy 30 -1.1 29 -1.5 97 97 S 10 17 29.99 1016 7 11.26538 N/A
7:58 am 07:58 Cloudy 30 -1.3 29 -1.8 96 96 SSW 6 9 29.98 1015 7 11.26538 N/A
8:58 am 08:58 Cloudy 30 -1.3 29 -1.8 96 96 SSE 9 15 29.98 1015 10 16.0934 N/A
9:58 am 09:58 Cloudy 29 -1.7 28 -2.2 96 96 SE 12 19 29.96 1015 7 11.26538 N/A
10:58 am 10:58 Cloudy with Mist and Fog 29 -1.7 28 -2 98 98 SSE 14 22 29.96 1015 6 9.65604 N/A
11:58 am 11:58 Cloudy with Mist and Fog 29 -1.8 28 -2 99 99 SSE 10 17 29.94 1014 6 9.65604 N/A
12:58 pm 12:58 Cloudy 29 -1.9 28 -2.2 98 98 SE 12 19 29.93 1014 9 14.48406 N/A
1:58 pm 13:58 Cloudy with Mist and Fog 28 -2.1 28 -2.5 97 97 SE 12 19 29.92 1013 6 9.65604 N/A
2:58 pm 14:58 Cloudy 28 -2.1 28 -2.4 98 98 SE 15 24 29.9 1013 9 14.48406 N/A
3:58 pm 15:58 Cloudy with Mist and Fog 28 -2.1 28 -2.4 98 98 SSE 10 17 29.91 1013 4 6.43736 N/A
4:58 pm 16:58 Cloudy with Mist and Fog 28 -2.2 28 -2.4 99 99 SE 14 22 29.87 1012 5 8.0467 N/A
5:58 pm 17:58 Cloudy 29 -1.8 28 -2.2 97 97 SSE 20 31 29.83 1010 10 16.0934 N/A
7:58 pm 19:58 Mostly Cloudy with Fog 30 -1.3 29 -1.5 99 99 ESE 14 22 29.71 1006 0.5 0.80467 N/A
8:58 pm 20:58 Mostly Cloudy with Drizzle 29 -1.4 29 -1.6 99 99 ESE 12 19 29.68 1005 0.5 0.80467 N/A
9:58 pm 21:58 Mostly Cloudy with Drizzle 29 -1.4 29 -1.5 99 99 ESE 12 19 29.65 1004 0.75 1.207005 N/A
10:58 pm 22:58 Mostly Cloudy with Drizzle 30 -1.3 29 -1.4 99 99 ESE 17 28 29.62 1003 5 8.0467 N/A
11:58 pm 23:58 Cloudy 29 -1.4 29 -1.5 99 99 ESE 17 28 29.59 1002 8 12.87472 N/A

Powered by AerisWeather